Regional Weather Roundup
Issued by NWS

Home | Current Version | Previous Version | Graphics & Text | Print | Product List | Glossary On
Versions: 1 2 3 4 5 6 7 8 9 10 11 12 13 14 15 16 17 18 19 20 21 22 23 24 25 26 27 28 29 30 31 32 33 34 35 36 37 38 39 40 41 42 43 44 45 46 47 48 49 50
000
ASUS45 KTFX 210604
RWRMT
MONTANA HOURLY WEATHER ROUNDUP
NATIONAL WEATHER SERVICE GREAT FALLS MT
1204 AM MDT SUN SEP 21 2014

NOTE: "FAIR" INDICATES FEW OR NO CLOUDS BELOW 12000 FEET WITH NO
SIGNIFICANT WEATHER AND/OR OBSTRUCTIONS TO VISIBILITY.

* THESE STATIONS ARE NOT UNDER NWS QUALITY CONTROL. THEY DO NOT
   REPORT WEATHER SUCH AS PRECIPITATION OR FOG.

MTZ001>007-043-210700-
WEST OF THE DIVIDE
CITY           SKY/WX    TMP DP  RH WIND       PRES   REMARKS
KALISPELL      CLEAR     54  45  72 NW5       30.16R
MISSOULA       CLEAR     54  43  67 NW5       30.17R
BUTTE          CLEAR     46  36  68 SE6       30.30S
MULLAN PASS    CLEAR     57  36  46 SE9       30.27S
* ESSEX        N/A       54  41  62 SE8G15     N/A
* LINCOLN      N/A       57  39  51 NE8        N/A
* LOOKOUT PASS N/A       54  38  55 SE3        N/A
* POLSON       N/A       57  44  62 N/A        N/A
* RONAN APT    CLEAR     48  39  71 N/A        N/A
* SEELEY LAKE  N/A       43  34  71 NE1        N/A
* THOMP F APT  CLEAR     56  36  47 NE3G12     N/A
$$

MTZ008-052>055-210700-
SOUTHWEST MONTANA
CITY           SKY/WX    TMP DP  RH WIND       PRES   REMARKS
BOZEMAN        CLEAR     48  39  71 W5        30.26R
DILLON         CLEAR     54  39  57 S5        30.26R
W YELLOWSTONE  CLEAR     39  37  93 S3        30.35S
* THREE FORKS  CLEAR     46  -8  10 N/A        N/A
* BOULDER HILL N/A       51  33  50 N/A        N/A
* MONIDA PASS  N/A       50  36  59 W4         N/A
* RAYNOLDS PAS N/A       48  42  80 N/A        N/A
* WHITEHALL    N/A       51  37  59 N8         N/A
* WISE RIVER   N/A       49  29  46 SW3        N/A
$$

MTZ009>010-012-014-046-048-049-054-210700-
EAST SLOPES AND CENTRAL MONTANA
CITY           SKY/WX    TMP DP  RH WIND       PRES   REMARKS
CUT BANK       CLEAR     52  39  61 S3        30.28S
GREAT FALLS    CLEAR     54  43  67 E9        30.26S
HELENA         CLEAR     61  41  48 W8        30.24R
MALMSTROM AFB  CLEAR     54  41  62 SE2       30.28R
* CONRAD       CLEAR     46  43  89 N/A        N/A
* EAST GLACIER N/A       48  42  80 N/A        N/A
* MONARCH      N/A       46  41  83 N/A        N/A
* PENDROY      N/A       50  43  77 SW6        N/A
* ROGERS PASS  N/A       50  39  66 NW2        N/A
* SAINT MARY   N/A       50  44  80 SW3        N/A
* SWEET GRASS  N/A       56  38  51 S16        N/A
$$

MTZ011-013-016-021-035-040-045-047-050-051-210700-
NORTH CENTRAL MONTANA
CITY           SKY/WX    TMP DP  RH WIND       PRES   REMARKS
HAVRE          CLEAR     50  39  66 CALM      30.25S
LEWISTOWN      CLEAR     48  43  83 E7        30.30S
* CHESTER      N/A       48  37  66 NE2        N/A
* DENTON       N/A       44  42  93 SW6        N/A
* GEYSER       N/A       44  42  93 S6         N/A
* JUDITH GAP   N/A       48  45  89 SW6        N/A
* LOMA         N/A       52  39  61 NE3        N/A
$$

MTZ017>020-022>027-061-062-210700-
NORTHEAST MONTANA
CITY           SKY/WX    TMP DP  RH WIND       PRES   REMARKS
GLASGOW        CLEAR     52  36  55 NW5       30.25R
JORDAN         CLEAR     45  39  80 NW6       30.27R
SIDNEY         CLEAR     48  36  63 NW5       30.24R
WOLF POINT     CLEAR     46  37  71 SW3       30.24R
* BEAVER HILL  N/A       50  32  50 SW3        N/A
* CIRCLE       N/A       48  38  68 N/A        N/A
* LINDSAY DVD  N/A       42  34  73 NW8        N/A
$$

MTZ028>042-056>058-210700-
SOUTHCENTRAL AND SOUTHEAST MONTANA
CITY           SKY/WX    TMP DP  RH WIND       PRES   REMARKS
BAKER          CLEAR     46  36  68 W3        30.28R
BILLINGS       CLEAR     57  43  60 N5        30.29R
LIVINGSTON     CLEAR     52  41  66 CALM      30.29R
MILES CITY     CLEAR     54  37  53 CALM      30.27R
* LAUREL APT   CLEAR     57  39  51 N5         N/A
* ROUNDUP APT  CLEAR     54  39  57 N/A        N/A
* ALZADA       N/A       49  37  63 W3         N/A
* HYSHAM       N/A       55  37  51 E4         N/A
* LAME DEER    N/A       56  37  49 NE7        N/A
* REED POINT   N/A       50  44  80 E2         N/A
* ROSCOE HILL  N/A       55  33  43 S4         N/A
$$

REGIONAL REPORTS...DAKOTAS
CITY           SKY/WX    TMP DP  RH WIND       PRES   REMARKS
WILLISTON      CLEAR     52  37  57 W10       30.20R
DICKINSON      CLEAR     46  36  68 W6        30.21R
BEACH          N/A       39  36  89 CALM      30.26R
CROSBY         CLEAR     48  41  77 W9        30.18R
TIOGA          CLEAR     45  41  86 W9        30.21R
WATFORD CITY   CLEAR     46  36  68 SW6       30.18S
BISMARCK       CLEAR     55  41  59 NW9       30.15R
GRAND FORKS    CLOUDY    54  50  86 NW7       29.98R
FARGO          CLOUDY    55  48  77 NW10      29.99R
BUFFALO SD     CLEAR     54  36  51 N15       30.20R
RAPID CITY     CLEAR     55  37  51 N10       30.28R
$$

REGIONAL REPORTS...WYOMING/IDAHO/WASHINGTON
CITY           SKY/WX    TMP DP  RH WIND       PRES   REMARKS
GILLETTE       CLEAR     45  37  74 S8        30.33R
SHERIDAN       CLEAR     48  41  77 S3        30.31R
CODY           CLEAR    N/A N/A N/A N/A        N/A
YELLOWSTONE LA CLEAR     37  34  89 NW3       30.44R
SALMON         PTCLDY    52  39  61 CALM      30.15R
MULLAN PASS    CLEAR     57  36  46 SE9       30.27S
SAND POINT     CLEAR     55  45  69 CALM      30.10S
SPOKANE        CLEAR     64  45  50 NE6       30.05F

$$



USA.gov is the U.S. government's official web portal to all federal, state and local government web resources and services.